Hourly Data Report for October 15, 2016

All times are specified in Local Standard Time (LST). Add 1 hour to adjust for Daylight Saving Time where and when it is observed.

OTTAWA INTL A
ONTARIO

45°19'00.000" N
75°40'00.000" W
114.90 m
6106001
71628
YOW

Download Data

Hourly Data (October 2016)
Hourly Data Report for October 15, 2016
Temp Definition
°C
Dew Point Temp Definition
°C
Rel Hum Definition
%
Wind Dir Definition
10's deg

Wind Spd Definition
km/h
Visibility Definition
km
Stn Press Definition
kPa
Hmdx Definition


Wind Chill Definition


Weather Definition


TIME
00:00 Legend Double Dagger 2.0 -0.6 83 11 9 24.1 101.38     LegendNANA
01:00 Legend Double Dagger 2.0 -0.3 85 13 13 24.1 101.32     Clear
02:00 Legend Double Dagger 2.4 0.1 85 9 7 24.1 101.39     LegendNANA
03:00 Legend Double Dagger 0.9 -0.7 89 13 13 24.1 101.34     LegendNANA
04:00 Legend Double Dagger 1.2 -0.4 89 10 10 24.1 101.39     Mainly Clear
05:00 Legend Double Dagger 1.9 -0.4 85 8 8 24.1 101.43     LegendNANA
06:00 Legend Double Dagger 1.1 -0.1 92 9 7 24.1 101.38     LegendNANA
07:00 Legend Double Dagger 1.2 0.1 92 5 9 24.1 101.39     Mostly Cloudy
08:00 Legend Double Dagger 3.5 1.5 87 12 10 24.1 101.36     LegendNANA
09:00 Legend Double Dagger 7.1 1.8 69 16 12 24.1 101.31     LegendNANA
10:00 Legend Double Dagger 10.5 3.1 60 13 12 24.1 101.25     Mostly Cloudy
11:00 Legend Double Dagger 13.1 3.3 51 14 13 24.1 101.16     LegendNANA
12:00 Legend Double Dagger 15.1 4.6 49 18 10 24.1 101.05     LegendNANA
13:00 Legend Double Dagger 16.4 2.9 40 17 22 24.1 100.94     Mainly Clear
14:00 Legend Double Dagger 17.5 3.1 38 16 21 24.1 100.86     LegendNANA
15:00 Legend Double Dagger 17.9 3.1 37 18 19 24.1 100.77     LegendNANA
16:00 Legend Double Dagger 17.0 3.8 41 19 20 24.1 100.72     Mostly Cloudy
17:00 Legend Double Dagger 15.2 4.4 48 18 13 24.1 100.67     LegendNANA
18:00 Legend Double Dagger 13.2 3.9 53 19 11 24.1 100.63     LegendNANA
19:00 Legend Double Dagger 12.5 4.0 56 16 9 24.1 100.59     Mostly Cloudy
20:00 Legend Double Dagger 9.9 4.1 67 14 10 24.1 100.58     LegendNANA
21:00 Legend Double Dagger 9.9 4.5 69 16 10 24.1 100.51     LegendNANA
22:00 Legend Double Dagger 11.4 4.7 63 18 12 24.1 100.45     Mostly Cloudy
23:00 Legend Double Dagger 12.9 4.7 57 18 18 24.1 100.38     LegendNANA

Notes on Data Quality.

Legend

  • E = Estimated
  • M = Missing
  • NA = Not Available
  • ‡ = Partner data that is not subject to review by the National Climate Archives
Date modified: